Location: Lake Arresoe
(56.0000°N, 12.5000°E)
Time: 09:32:36
(UTC+02:00)

Cosmos 1674 - Pass Details

Date: 27 July 2021
Orbit: 491 x 516 km, 82.5° (Epoch: 26 September)

Event Time Altitude Azimuth Distance (km) Brightness Sun altitude
Rises 03:42:27 0° 349° (N) 2,655 7.1 -8.8°
Reaches altitude 10° 03:44:37 10° 353° (N) 1,763 6.2 -8.6°
Maximum altitude 03:48:28 61° 75° (ENE) 597 3.3 -8.3°
Drops below altitude 10° 03:52:16 10° 156° (SSE) 1,748 5.1 -8.0°
Sets 03:54:24 0° 160° (SSE) 2,629 6.0 -7.8°
